Regional Weather Roundup
Issued by NWS

Home | Current Version | Previous Version | Graphics & Text | Print | Product List | Glossary On
Versions: 1 2 3 4 5 6 7 8 9 10 11 12 13 14 15 16 17 18 19 20 21 22 23 24 25 26 27 28 29 30 31 32 33 34 35 36 37 38 39 40 41 42 43 44 45 46 47 48 49 50
000
ASUS45 KBOU 200407
RWRCO

WEATHER ROUNDUP FOR COLORADO
NATIONAL WEATHER SERVICE DENVER/BOULDER CO
1000 PM MDT WED JUL 19 2017

NOTE: "FAIR" INDICATES FEW OR NO CLOUDS BELOW 12000 FEET WITH NO
SIGNIFICANT WEATHER AND/OR OBSTRUCTIONS TO VISIBILITY.

COZ001>005-013-030-031-200500-
...NORTHWEST COLORADO...

CITY           SKY/WX    TMP DP  RH WIND       PRES   REMARKS
CRAIG          CLOUDY    67  53  61 S10       30.35R
HAYDEN         FAIR      63  52  67 E9        30.38R
MEEKER         MOCLDY    63  58  83 NE12      30.35F
RABBIT EARS PA LGT RAIN  50  50 100 W8G20     30.66R
STEAMBOAT SPGS CLOUDY    62  55  77 SE3       30.42R
WALDEN         MOCLDY    61  50  67 CALM      30.46R
$$

COZ006>008-011-200500-
...WEST CENTRAL VALLEYS...

CITY           SKY/WX    TMP DP  RH WIND       PRES   REMARKS
GRAND JUNCTION FAIR      78  57  48 NW7G18    30.14R
MONTROSE       FAIR      74  52  46 SE7       30.19R
EAGLE          MOCLDY    70  56  61 E6        30.37R
RIFLE          MOCLDY    72  57  59 VRB6      30.25R
DELTA          FAIR      82  53  36 CALM      30.15R
NUCLA          FAIR      72  54  53 E5        30.25R
$$

COZ017>023-064>068-200500-
...SOUTHWEST COLORADO...

CITY           SKY/WX    TMP DP  RH WIND       PRES   REMARKS
DURANGO        FAIR      74  45  35 VRB6      30.26R
CORTEZ         FAIR      75  50  41 E6        30.19R
PAGOSA SPRINGS FAIR      69  45  42 CALM      30.38R
TELLURIDE      FAIR      63  56  77 CALM      30.51R
WOLF CREEK PAS FAIR      52  41  66 SW9       30.77R
$$

COZ009-010-012-014-032>034-037-058>063-200500-
...CENTRAL COLORADO...

CITY           SKY/WX    TMP DP  RH WIND       PRES   REMARKS
ASPEN          FAIR      60  54  80 SW6       30.41R
BUENA VISTA    FAIR      61  50  67 NW12      30.43R
COPPER MTN     LGT RAIN  54  43  66 W7        30.77R
BERTHOUD PASS  FAIR      45  30  57 SW15G23   30.79R
COTTONWOOD PAS FAIR      61  43  51 W8        30.57R
GUNNISON       FAIR      65  53  65 N6        30.40R
KREMMLING      CLOUDY    64  59  82 SE3       30.45R
LEADVILLE      FAIR      51  48  89 CALM      30.56F
MONARCH PASS   FAIR      54  36  50 W12       30.84R
SALIDA         FAIR      68  50  52 N7        30.47R
SUNLIGHT       MOCLDY    50  45  81 NE6       30.67R
WILKERSON PASS FAIR      54  37  54 W6        30.71R
$$

COZ069>075-200500-
...SAN LUIS VALLEY/SANGRE DE CRISTO MOUNTAINS...

CITY           SKY/WX    TMP DP  RH WIND       PRES   REMARKS
ALAMOSA        FAIR      67  52  58 NW3       30.34R
DEL NORTE      FAIR      66  50  55 W7        30.40R
LA VETA PASS   NOT AVBL
SAGUACHE         N/A    N/A N/A N/A MISG        N/A
$$

COZ035-036-038>040-200500-
...NORTHERN COLORADO FRONT RANGE...

CITY           SKY/WX    TMP DP  RH WIND       PRES   REMARKS
DENVER INTL AP MOCLDY    80  49  33 SW7       30.19R
DMNS CITY PARK   N/A     74  53  49 SE7G13    30.17R
AURORA         NOT AVBL
FRONT RANGE AP CLOUDY    79  50  36 W7        30.22R
ERIE MUNI ARPT FAIR      77  45  32 CALM      30.13S
BOULDER MUN AP FAIR      79  45  29 N5        30.14S
CENTENNIAL     MOCLDY    71  55  56 SE7       30.21R
BROOMFIELD     FAIR      77  45  31 N5        30.18R
FORT COLLINS   FAIR      81  51  35 N16       30.15R
LONGMONT       FAIR      79  50  36 NW5       30.15R
$$

COZ041-046-047-076>085-087-088-200500-
...PIKES PEAK/PALMER DIVIDE AND SOUTHERN FOOTHILLS...

CITY           SKY/WX    TMP DP  RH WIND       PRES   REMARKS
COLO. SPRINGS  TSTM      71  59  65 N24       30.23F
A. F. ACADEMY  NOT AVBL
SCHRIEVER AFB  NOT AVBL
CHEYENNE MTN   NOT AVBL
ELLICOTT       FAIR     N/A N/A N/A N9        30.22S
FALCON           N/A     70  48  45 W29G35    30.32R
FORT CARSON    FAIR      71  55  56 NW17      30.19R
LIMON          FAIR      74  54  49 NW10      30.17R
MONUMENT HILL  FAIR      72  45  37 SW21G26   30.32F
CANON CITY     CLEAR     75  57  53 W10       30.16S
WALSENBURG     FAIR      75  50  41 W6        30.23R
TRINIDAD       FAIR      82  41  23 SW21G30   30.18R
$$

COZ042>045-048>051-090-091-200500-
...NORTHEAST COLORADO...

CITY           SKY/WX    TMP DP  RH WIND       PRES   REMARKS
GREELEY ARPT   FAIR      77  53  43 NW14      30.12R
AKRON          FAIR      83  49  30 W9        30.07R
BURLINGTON     FAIR      77  59  53 S12       30.08R
WRAY           NOT AVBL
YUMA           FAIR      81  55  41 SW9       30.04R
STERLING       FAIR      77  61  57 CALM      30.03R
HOLYOKE        FAIR      81  61  50 S9        30.00R
FORT MORGAN    FAIR      79  49  35 SW12G17   30.07R
$$

COZ086-089-092>099-200500-
...SOUTHEAST COLORADO...

CITY           SKY/WX    TMP DP  RH WIND       PRES   REMARKS
PUEBLO         FAIR      80  54  40 NW14      30.10R
LA JUNTA       FAIR      86  50  28 S13       30.05R
LAMAR          FAIR      83  51  33 S15       30.01R
SPRINGFIELD      N/A     76  54  46 S15       30.12R
$$



USA.gov is the U.S. government's official web portal to all federal, state and local government web resources and services.